Forecast

Icon not available

Fine weather.
Computed at 09:56 BST:



Current


  • Indoors 20.3 °C
  • Outside 20.2 °C
  • Feels 19.7 °C
  • Humidity 51%
  • Pressure 1024.6 hPa
  • Hour trend 0.3 hPa
  • Wind 0.7 mph
  • Gust 2.4 mph
  • Direction E
  • Hourly rain 0.0 mm
  • Daily rain 0.0 mm


Graphs




Links


Last 28 days view

24 hours ending Temperature Wind Rainfall
day max night min dir average max gust
20-08-2017 - 10:56 BST 20.6 °C 10.5 °C SE 1 mph 8 mph 0.0 mm
19-08-2017 - 21:56 BST 21.2 °C 12.2 °C ESE 2 mph 15 mph 0.0 mm
18-08-2017 - 21:56 BST 24.0 °C 15.2 °C SE 2 mph 15 mph 0.3 mm
17-08-2017 - 21:56 BST 23.6 °C 15.3 °C ESE 3 mph 14 mph 0.9 mm
16-08-2017 - 21:56 BST 22.7 °C 11.9 °C ESE 1 mph 11 mph 0.0 mm
15-08-2017 - 21:56 BST 26.0 °C 15.0 °C SSE 1 mph 9 mph 1.5 mm
14-08-2017 - 21:56 BST 25.0 °C 13.1 °C ENE 1 mph 8 mph 0.0 mm
13-08-2017 - 21:56 BST 24.9 °C 12.0 °C WSW 1 mph 8 mph 0.0 mm
12-08-2017 - 21:56 BST 23.5 °C 16.0 °C SE 1 mph 11 mph 0.0 mm
11-08-2017 - 21:56 BST 23.7 °C 10.5 °C SE 1 mph 11 mph 0.3 mm
10-08-2017 - 21:56 BST 18.2 °C 12.0 °C W 4 mph 17 mph 0.6 mm
09-08-2017 - 21:56 BST 16.4 °C 12.4 °C SW 1 mph 12 mph 33.0 mm
08-08-2017 - 22:00 BST 20.6 °C 12.6 °C ENE 0 mph 5 mph 0.9 mm
07-08-2017 - 21:58 BST 20.8 °C 12.4 °C E 1 mph 9 mph 0.0 mm
06-08-2017 - 21:59 BST 21.8 °C 10.9 °C SE 2 mph 11 mph 0.0 mm
05-08-2017 - 21:58 BST 22.8 °C -28.8 °C SSW 1 mph 5 mph 0.0 mm
04-08-2017 - 21:53 BST 21.8 °C 15.1 °C SE 3 mph 15 mph 0.0 mm
03-08-2017 - 21:56 BST 20.5 °C 15.5 °C ESE 5 mph 19 mph 0.0 mm
02-08-2017 - 21:59 BST 19.0 °C 14.6 °C E 2 mph 11 mph 6.0 mm
01-08-2017 - 21:59 BST 24.1 °C 12.1 °C ESE 2 mph 13 mph 0.0 mm
31-07-2017 - 21:49 BST 22.2 °C 13.4 °C SE 3 mph 11 mph 0.0 mm
30-07-2017 - 21:59 BST 21.5 °C 14.5 °C SE 2 mph 147 mph 2.7 mm
29-07-2017 - 21:59 BST 21.8 °C 16.3 °C SE 3 mph 14 mph 0.9 mm
28-07-2017 - 21:59 BST 21.3 °C 13.3 °C SE 4 mph 15 mph 0.3 mm
27-07-2017 - 21:54 BST 20.0 °C 13.8 °C SE 2 mph 15 mph 3.0 mm
26-07-2017 - 21:59 BST 21.1 °C 14.2 °C SE 3 mph 13 mph 0.0 mm
25-07-2017 - 21:59 BST 22.7 °C 13.1 °C WSW 3 mph 10 mph 0.3 mm
24-07-2017 - 21:59 BST 16.5 °C 12.9 °C SW 2 mph 15 mph 0.3 mm
23-07-2017 - 21:59 BST 20.4 °C 10.9 °C SE 2 mph 11 mph 0.3 mm
22-07-2017 - 21:59 BST 19.9 °C 14.2 °C ESE 2 mph 10 mph 0.3 mm
21-07-2017 - 21:59 BST 21.4 °C 12.6 °C E 3 mph 14 mph 0.0 mm
20-07-2017 - 21:59 BST 21.8 °C 16.7 °C ESE 2 mph 11 mph 1.5 mm
19-07-2017 - 21:59 BST 25.0 °C 17.2 °C SE 4 mph 153 mph 34.8 mm
18-07-2017 - 21:58 BST 24.0 °C 15.3 °C W 3 mph 114 mph 0.0 mm
17-07-2017 - 21:58 BST 26.0 °C 14.6 °C WSW 2 mph 148 mph 0.0 mm
16-07-2017 - 21:58 BST 25.2 °C 17.1 °C SSE 2 mph 8 mph 0.0 mm
15-07-2017 - 21:58 BST 21.3 °C 14.1 °C SE 2 mph 11 mph 0.0 mm
14-07-2017 - 21:58 BST 20.8 °C 15.6 °C SW 0 mph 4 mph 0.0 mm
13-07-2017 - 21:48 BST 21.3 °C 14.3 °C S 0 mph 1 mph 0.0 mm
12-07-2017 - 21:58 BST 20.1 °C 13.0 °C S 0 mph 3 mph 40.2 mm
11-07-2017 - 21:58 BST 20.5 °C 14.9 °C S 0 mph 0 mph 4.5 mm
10-07-2017 - 21:58 BST 26.0 °C 16.1 °C SE 1 mph 11 mph 0.0 mm
09-07-2017 - 21:58 BST 25.5 °C 16.1 °C ENE 1 mph 6 mph 0.0 mm
08-07-2017 - 21:58 BST 24.5 °C 17.6 °C WSW 2 mph 8 mph 0.0 mm
07-07-2017 - 21:58 BST 29.2 °C 17.0 °C S 1 mph 8 mph 0.0 mm
06-07-2017 - 21:58 BST 25.8 °C 17.3 °C NW 2 mph 11 mph 0.0 mm
05-07-2017 - 21:58 BST 24.8 °C 15.1 °C ENE 2 mph 8 mph 0.0 mm
04-07-2017 - 21:58 BST 25.2 °C 12.6 °C ESE 1 mph 7 mph 0.0 mm
03-07-2017 - 21:58 BST 22.9 °C 14.5 °C SE 2 mph 11 mph 0.0 mm
02-07-2017 - 21:58 BST 22.3 °C 15.3 °C SW 2 mph 13 mph 0.0 mm
01-07-2017 - 21:58 BST 23.5 °C 12.7 °C SW 3 mph 14 mph 0.0 mm
30-06-2017 - 21:56 BST 23.1 °C 12.0 °C SW 1 mph 9 mph 0.0 mm